sat.trackr.live / text

‹ back to catalog

HJS-7A

NORAD 65617 · 2025-209A

PAYLOAD ACTIVE UNKNOWN

§ Identity

Operator
Country
PRC
Launch date
2025-09-16
Launch site
JSC
Launch vehicle
Mass (kg)
RCS (m²)

External: N2YO · Heavens-Above · Gunter

§ Orbital elements

Epoch: 2026-05-25T01:22:34.340160Z

Period
107.35 min
Inclination
49.9990°
Eccentricity
0.0000994
Mean motion
13.41461371 rev/d
Perigee alt
1,103.1 km
Apogee alt
1,104.6 km
Semi-major
7,482.0 km
B*
9.4006e-5
RAAN
84.0375°
Arg perigee
343.9953°
Mean anomaly
16.0893°
Rev number
3,456

§ Raw data

HJS-7A1 65617U 25209A   26145.05734190 -.00000076  00000+0  94006-4 0  99962 65617  49.9990  84.0375 0000994 343.9953  16.0893 13.41461371 34568

JSON: /api/v1/satellites/65617 · /tle

For live sub-satellite position, see the globe view (requires WebGL).

§ Visibility from observer

Set your observer location to see the next 7 days of passes ≥ 10°. The values pass through the URL so the page stays shareable.

No JS? Fill the form by hand. The geolocation button needs JavaScript.